Weather reports worldwide

Advertisment
Eskdalemuir, United Kingdom (3162): temperature & dewpoint: 10.06.2019 12:00:00 - 16.06.2019 12:00:00 (BST)Eskdalemuir, United Kingdom (3162): temperature -20cm & temperature -100cm: 10.06.2019 12:00:00 - 16.06.2019 12:00:00 (BST)Eskdalemuir, United Kingdom (3162): wind speed & gusts: 10.06.2019 12:00:00 - 16.06.2019 12:00:00 (BST)Eskdalemuir, United Kingdom (3162): wind direction: 10.06.2019 12:00:00 - 16.06.2019 12:00:00 (BST)Eskdalemuir, United Kingdom (3162): reduced air pressure: 10.06.2019 12:00:00 - 16.06.2019 12:00:00 (BST)Eskdalemuir, United Kingdom (3162): visibility: 10.06.2019 12:00:00 - 16.06.2019 12:00:00 (BST)Eskdalemuir, United Kingdom (3162): sunshine duration: 10.06.2019 12:00:00 - 16.06.2019 12:00:00 (BST)Eskdalemuir, United Kingdom (3162): precipitation: 10.06.2019 12:00:00 - 16.06.2019 12:00:00 (BST)
Date & Time tt [°C] td [°C] tt -20cm [°C] tt -100cm [°C] ff [km/h] ff [kn] fx [km/h] fx [kn] dd ppp [hPa] vv [km] sd [min] rr [mm]
16.06.2019 12:00:00 13,2 6,3 - - 28 15 - - S 1010,5 35 42 0,0
16.06.2019 11:00:00 12,2 5,4 - - 26 14 - - S 1010,6 35 24 0,0
16.06.2019 10:00:00 11,7 7,6 12,9 11,7 28 15 - - S 1010,4 35 24 0,0
16.06.2019 09:00:00 10,3 7,9 - - 18 10 - - S 1010,5 35 6 0,0
16.06.2019 08:00:00 9,7 8,5 - - 11 6 - - S 1010,5 35 0 1,0
16.06.2019 07:00:00 7,8 7,4 - - 8 4 - - SSE 1010,6 9 0 1,2
16.06.2019 06:00:00 8,0 6,1 - - 2 1 - - ESE 1010,3 50 0 0,0
16.06.2019 05:00:00 8,2 6,6 - - 4 2 - - S 1010,2 40 0 0,0
16.06.2019 04:00:00 8,0 6,7 - - 8 4 - - SE 1010,3 35 0 0,0
16.06.2019 03:00:00 8,2 7,3 - - 9 5 - - S 1010,3 21 0 0,0
16.06.2019 02:00:00 7,7 6,8 - - 5 3 - - SE 1010,5 25 0 0,0
16.06.2019 01:00:00 8,0 6,6 - - 4 2 - - S 1010,7 35 - 0,0
16.06.2019 00:00:00 7,7 6,4 - - 4 2 - - SSE 1010,7 40 0 0,0
15.06.2019 23:00:00 7,2 6,0 - - 5 3 - - ENE 1010,5 35 0 0,0
15.06.2019 22:00:00 9,1 5,7 - - 9 5 - - S 1010,0 50 0 0,0
15.06.2019 21:00:00 10,5 7,2 - - 16 9 - - S 1009,4 40 0 0,0
15.06.2019 20:00:00 11,4 7,1 - - 21 11 - - SSW 1009,1 35 6 0,0
15.06.2019 19:00:00 12,2 7,2 - - 18 10 - - S 1009,0 45 24 0,0
15.06.2019 18:00:00 13,0 6,6 - - 22 12 - - S 1009,1 35 12 0,0
15.06.2019 17:00:00 13,3 7,6 - - 21 11 - - SSW 1009,3 45 24 0,0
15.06.2019 16:00:00 13,7 8,8 - - 24 13 - - SSW 1009,0 40 6 0,0
15.06.2019 15:00:00 12,0 9,9 - - 22 12 - - SSW 1009,0 15 6 0,2
15.06.2019 14:00:00 14,9 9,2 - - 15 8 - - SE 1008,1 40 6 0,0
15.06.2019 13:00:00 12,4 8,4 - - 18 10 - - SSE 1008,7 18 0 0,0
15.06.2019 12:00:00 13,5 7,3 - - 21 11 - - SSE 1008,2 30 0 0,0
15.06.2019 11:00:00 13,9 7,5 - - 16 9 - - SSE 1008,2 30 6 0,0
15.06.2019 10:00:00 12,5 8,4 12,9 11,7 13 7 - - SE 1008,3 29 0 0,0
15.06.2019 09:00:00 11,7 8,4 - - 9 5 - - SE 1008,4 24 0 0,0
15.06.2019 08:00:00 10,3 9,2 - - 0 0 - - N 1008,7 19 0 0,0
15.06.2019 07:00:00 8,9 8,6 - - 5 3 - - NNE 1008,7 12 18 0,0
15.06.2019 06:00:00 7,8 7,4 - - 5 3 - - S 1008,5 8 12 0,0
15.06.2019 05:00:00 7,8 7,5 - - 2 1 - - SSE 1008,6 3,6 0 0,0
15.06.2019 04:00:00 8,2 7,9 - - 2 1 - - NNW 1008,9 12 0 0,0
15.06.2019 03:00:00 8,1 7,9 - - 4 2 - - WNW 1009,2 13 0 0,0
15.06.2019 02:00:00 7,5 7,2 - - 5 3 - - NW 1009,2 22 0 0,2
15.06.2019 01:00:00 7,8 7,6 - - 4 2 - - NW 1009,2 11 - 0,0
15.06.2019 00:00:00 8,8 8,4 - - 4 2 - - NW 1009,3 21 0 0,0
14.06.2019 23:00:00 9,0 8,5 - - 5 3 - - N 1009,3 21 0 0,4
14.06.2019 22:00:00 9,8 8,0 - - 5 3 - - N 1008,8 18 0 0,2
14.06.2019 21:00:00 10,8 7,4 - - 5 3 - - S 1008,3 50 0 0,0
14.06.2019 20:00:00 11,6 6,5 - - 15 8 - - SSW 1008,0 30 36 0,0
14.06.2019 19:00:00 12,1 6,1 - - 18 10 - - SSW 1007,7 40 18 0,0
14.06.2019 18:00:00 12,2 6,0 - - 24 13 - - SSW 1007,6 50 36 0,0
14.06.2019 17:00:00 12,9 5,4 - - 24 13 - - SSW 1007,0 35 60 0,0
14.06.2019 16:00:00 12,4 5,0 - - 24 13 - - S 1006,8 45 54 0,0
14.06.2019 15:00:00 13,7 6,6 - - 24 13 - - SSW 1006,3 40 24 0,0
14.06.2019 14:00:00 12,1 7,1 - - 22 12 - - S 1006,2 30 18 0,0
14.06.2019 13:00:00 11,4 7,2 - - 13 7 - - S 1005,8 35 12 0,0
14.06.2019 12:00:00 10,0 7,1 - - 15 8 - - SSE 1005,8 25 0 0,2
14.06.2019 11:00:00 8,3 6,6 - - 11 6 - - S 1005,9 7 0 0,2
14.06.2019 10:00:00 7,8 7,0 12,9 11,7 9 5 - - S 1005,7 12 0 1,6
14.06.2019 09:00:00 8,3 5,4 - - 11 6 - - SSE 1005,1 25 12 0,0
14.06.2019 08:00:00 8,6 5,4 - - 18 10 - - SSW 1004,6 18 48 0,0
14.06.2019 07:00:00 7,2 6,3 - - 9 5 - - S 1004,6 24 6 0,0
14.06.2019 06:00:00 6,6 6,2 - - 5 3 - - S 1004,2 17 0 0,0
14.06.2019 05:00:00 6,4 6,0 - - 8 4 - - S 1003,8 20 0 0,0
14.06.2019 04:00:00 6,3 5,9 - - 5 3 - - SSE 1003,5 20 0 0,0
14.06.2019 03:00:00 6,5 6,1 - - 9 5 - - SSE 1003,5 20 0 0,0
14.06.2019 02:00:00 6,8 6,4 - - 8 4 - - SSE 1003,6 18 0 0,0
14.06.2019 01:00:00 7,0 6,6 - - 5 3 - - S 1003,9 23 - 0,0
14.06.2019 00:00:00 7,3 6,8 - - 9 5 - - S 1003,9 40 0 0,2
13.06.2019 23:00:00 7,4 7,0 - - 11 6 - - S 1003,8 2,9 0 0,0
13.06.2019 22:00:00 7,8 6,7 - - 5 3 - - SSE 1003,6 50 0 0,0
13.06.2019 21:00:00 8,1 7,1 - - 8 4 - - SSW 1003,1 50 0 0,0
13.06.2019 20:00:00 8,5 7,4 - - 5 3 - - S 1002,8 45 0 0,2
13.06.2019 19:00:00 8,6 7,1 - - 8 4 - - SSW 1002,9 17 0 0,2
13.06.2019 18:00:00 8,8 6,5 - - 8 4 - - SSW 1003,0 27 0 0,0
13.06.2019 17:00:00 9,3 6,4 - - 4 2 - - NE 1003,0 15 0 0,0
13.06.2019 16:00:00 9,1 5,8 - - 9 5 - - NNW 1003,4 45 0 0,2
13.06.2019 15:00:00 8,8 6,1 - - 11 6 - - N 1003,7 18 0 0,2
13.06.2019 14:00:00 8,3 5,5 - - 15 8 - - N 1004,1 18 0 0,0
13.06.2019 13:00:00 8,2 6,0 - - 21 11 - - N 1004,3 25 0 0,4
13.06.2019 12:00:00 7,1 5,4 - - 21 11 - - N 1004,9 12 0 0,4
13.06.2019 11:00:00 6,8 5,3 - - 26 14 - - N 1005,2 14 0 0,8
13.06.2019 10:00:00 6,6 5,1 13,0 11,7 26 14 - - N 1005,6 11 0 1,6
13.06.2019 09:00:00 6,5 5,3 - - 26 14 50 27 N 1005,9 9 0 1,8
13.06.2019 08:00:00 6,5 4,9 - - 31 17 57 31 N 1006,0 12 0 1,2
13.06.2019 07:00:00 6,9 5,3 - - 34 18 55 30 N 1006,5 18 0 0,6
13.06.2019 06:00:00 7,3 5,6 - - 31 17 52 28 N 1006,8 23 0 0,8
13.06.2019 05:00:00 7,7 5,8 - - 26 14 52 28 N 1007,1 18 0 0,2
13.06.2019 04:00:00 7,8 6,3 - - 35 19 52 28 N 1007,5 21 0 0,2
13.06.2019 03:00:00 8,1 6,7 - - 29 16 46 25 N 1008,1 13 0 0,6
13.06.2019 02:00:00 8,4 7,5 - - 28 15 54 29 N 1009,1 7 0 0,6
13.06.2019 01:00:00 8,7 7,8 - - 28 15 46 25 N 1009,4 3,8 - 0,4
13.06.2019 00:00:00 9,2 8,0 - - 35 19 52 28 N 1010,1 3,2 0 0,0
12.06.2019 23:00:00 9,5 8,5 - - 29 16 - - NNE 1010,9 14 0 0,6
12.06.2019 22:00:00 9,7 8,8 - - 34 18 - - N 1011,9 4,2 0 0,0
12.06.2019 21:00:00 9,9 8,8 - - 29 16 46 25 NNE 1011,7 11 0 0,2
12.06.2019 20:00:00 10,0 8,9 - - 24 13 48 26 NNE 1012,2 8 0 0,2
12.06.2019 19:00:00 10,3 8,9 - - 29 16 59 32 N 1011,8 4,7 0 0,2
12.06.2019 18:00:00 10,5 9,0 - - 37 20 67 36 NNE 1012,1 4,1 0 0,2
12.06.2019 17:00:00 11,7 8,5 - - 44 24 67 36 N 1011,8 18 6 0,0
12.06.2019 16:00:00 10,9 8,5 - - 37 20 52 28 N 1012,9 8 0 0,0
12.06.2019 15:00:00 10,9 8,5 - - 39 21 67 36 N 1013,6 9 18 0,0
12.06.2019 14:00:00 12,5 8,9 - - 42 23 65 35 N 1013,3 12 54 0,0
12.06.2019 13:00:00 11,4 8,3 - - 46 25 67 36 N 1013,7 9 6 0,0
12.06.2019 12:00:00 9,6 7,6 - - 34 18 52 28 N 1015,4 7 0 0,2
12.06.2019 11:00:00 9,4 7,4 - - 34 18 59 32 N 1015,8 8 0 0,0
12.06.2019 10:00:00 9,2 6,9 13,0 11,5 34 18 52 28 N 1016,1 8 0 0,0
12.06.2019 09:00:00 9,5 6,6 - - 44 24 65 35 NNE 1015,4 12 0 0,0
12.06.2019 08:00:00 9,1 6,6 - - 31 17 65 35 NNE 1015,8 12 0 0,0
12.06.2019 07:00:00 9,6 5,9 - - 42 23 67 36 N 1015,0 28 0 0,0
12.06.2019 06:00:00 8,9 5,8 - - 39 21 61 33 N 1016,2 18 0 0,0
12.06.2019 05:00:00 8,7 5,7 - - 34 18 48 26 N 1017,1 26 0 0,0
12.06.2019 04:00:00 8,7 5,3 - - 35 19 54 29 N 1017,3 40 0 0,0
12.06.2019 03:00:00 8,5 5,0 - - 24 13 46 25 N 1018,0 40 0 0,0
12.06.2019 02:00:00 8,7 5,2 - - 22 12 - - N 1019,1 50 0 0,0
12.06.2019 01:00:00 9,1 5,2 - - 22 12 - - N 1019,6 50 - 0,0
12.06.2019 00:00:00 9,1 6,1 - - 26 14 - - NNE 1019,8 50 0 0,0
11.06.2019 23:00:00 9,4 6,0 - - 18 10 - - N 1020,2 50 0 0,0
11.06.2019 22:00:00 9,7 6,3 - - 24 13 - - N 1020,4 50 0 0,0
11.06.2019 21:00:00 10,7 6,5 - - 21 11 - - NNE 1020,4 50 0 0,0
11.06.2019 20:00:00 10,6 6,4 - - 22 12 - - NNE 1020,4 50 0 0,0
11.06.2019 19:00:00 11,0 6,3 - - 28 15 - - NNE 1020,5 50 0 0,0
11.06.2019 18:00:00 11,3 6,2 - - 26 14 48 26 NNE 1020,8 50 6 0,0
11.06.2019 17:00:00 12,5 5,9 - - 29 16 50 27 NNE 1020,8 26 18 0,0
11.06.2019 16:00:00 13,4 5,7 - - 28 15 46 25 N 1020,7 45 18 0,0
11.06.2019 15:00:00 12,1 4,3 - - 26 14 - - NNE 1021,1 50 6 0,0
11.06.2019 14:00:00 12,0 5,4 - - 29 16 52 28 NNE 1021,4 50 12 0,0
11.06.2019 13:00:00 10,4 4,5 - - 29 16 46 25 NNE 1022,1 50 0 0,0
11.06.2019 12:00:00 10,1 4,3 - - 31 17 52 28 NNE 1021,8 45 0 0,0
11.06.2019 11:00:00 9,4 5,1 - - 31 17 50 27 N 1021,7 50 6 0,0
11.06.2019 10:00:00 9,8 5,5 13,0 11,5 28 15 46 25 NNE 1021,6 50 0 0,0
11.06.2019 09:00:00 9,9 5,3 - - 28 15 46 25 NNE 1021,6 60 24 0,0
11.06.2019 08:00:00 9,2 6,0 - - 26 14 - - NNE 1022,0 50 6 0,0
11.06.2019 07:00:00 8,4 6,1 - - 21 11 - - NNE 1022,4 50 0 0,0
11.06.2019 06:00:00 7,9 5,8 - - 21 11 - - NNE 1022,4 45 0 0,0
11.06.2019 05:00:00 7,0 5,4 - - 16 9 - - N 1022,1 50 0 0,0
11.06.2019 04:00:00 6,7 5,2 - - 18 10 - - N 1022,2 50 0 0,0
11.06.2019 03:00:00 6,1 4,9 - - 9 5 - - N 1022,3 50 0 0,0
11.06.2019 02:00:00 6,5 5,3 - - 13 7 - - N 1022,7 50 0 0,0
11.06.2019 01:00:00 6,9 5,4 - - 9 5 - - N 1022,9 50 - 0,0
11.06.2019 00:00:00 7,3 5,9 - - 13 7 - - N 1022,3 45 0 0,0
10.06.2019 23:00:00 8,9 6,0 - - 18 10 - - N 1022,3 50 0 0,0
10.06.2019 22:00:00 10,4 7,0 - - 15 8 - - NNE 1022,4 50 0 0,0
10.06.2019 21:00:00 10,4 6,8 - - 11 6 - - NNE 1021,7 45 18 0,0
10.06.2019 20:00:00 12,2 7,5 - - 22 12 - - NNE 1020,7 45 42 0,0
10.06.2019 19:00:00 13,3 7,7 - - 21 11 - - NE 1020,1 35 24 0,0
10.06.2019 18:00:00 14,2 8,3 - - 24 13 - - NE 1019,4 50 12 0,0
10.06.2019 17:00:00 14,8 7,2 - - 18 10 - - NE 1018,9 50 18 0,0
10.06.2019 16:00:00 16,3 7,6 - - 16 9 - - NNE 1018,4 60 18 0,0
10.06.2019 15:00:00 15,4 4,5 - - 13 7 - - N 1018,4 50 6 0,0
10.06.2019 14:00:00 17,7 5,6 - - 11 6 - - ENE 1018,4 60 54 0,0
10.06.2019 13:00:00 15,9 3,4 - - 8 4 - - E 1018,7 50 60 0,0
10.06.2019 12:00:00 15,7 6,1 - - 8 4 - - E 1019,0 50 60 0,0

tt = temperature
td = dewpoint
tt -20cm = temperature -20cm
tt -100cm = temperature -100cm
ff = wind speed
fx = gusts
dd = wind direction
ppp = reduced air pressure
vv = visibility
sd = sunshine duration
rr = precipitation

Next stations